Location: *
(28.3744°N, 81.5492°W)
Time: 04:15:48
(UTC+00:00)

Cosmos 2322 Rocket - Pass Details

Date: 15 June 2025
Orbit: 833 x 848 km, 71.0° (Epoch: 11 July)

Event Time Altitude Azimuth Distance (km) Brightness Sun altitude
Rises 00:48:26 0° 335° (NNW) 3,385 6.4 -5.4°
Reaches altitude 10° 00:50:55 10° 332° (NNW) 2,446 5.7 -5.9°
Maximum altitude 00:56:24 60° 254° (WSW) 951 2.8 -6.9°
Drops below altitude 10° 01:01:52 10° 175° (S) 2,430 4.3 -7.9°
Sets 01:04:20 0° 172° (S) 3,361 4.9 -8.4°
